Hourly Weather Druzbin

Today, 13 July, Monday

Time Temperature Precipitation Wind Pressure Humidity
00:00 +12°C° 0 mm 2 mps 756 mmHg 80%
01:00 +12°C° 0 mm 2 mps 757 mmHg 82%
02:00 +10°C° 0 mm 2 mps 756 mmHg 85%
03:00 +10°C° 0 mm 2 mps 756 mmHg 87%
04:00 +9°C° 0 mm 2 mps 756 mmHg 89%
05:00 +12°C° 0 mm 2 mps 756 mmHg 85%
06:00 +12°C° 0 mm 3 mps 756 mmHg 81%
07:00 +14°C° 0 mm 3 mps 756 mmHg 76%
08:00 +16°C° 0.1 mm 3 mps 755 mmHg 74%
09:00 +17°C° 0.1 mm 4 mps 755 mmHg 71%
10:00 +18°C° 0.1 mm 4 mps 755 mmHg 69%
11:00 +18°C° 0.1 mm 4 mps 755 mmHg 68%
12:00 +19°C° 0.1 mm 4 mps 754 mmHg 66%
13:00 +19°C° 0.1 mm 4 mps 754 mmHg 65%
14:00 +20°C° 0.1 mm 4 mps 754 mmHg 65%
15:00 +20°C° 0.1 mm 4 mps 753 mmHg 65%
16:00 +20°C° 0.1 mm 4 mps 753 mmHg 65%
17:00 +19°C° 0 mm 3 mps 753 mmHg 69%
18:00 +19°C° 0 mm 2 mps 753 mmHg 72%
19:00 +18°C° 0 mm 2 mps 753 mmHg 76%
20:00 +18°C° 0 mm 1 mps 753 mmHg 79%
21:00 +16°C° 0 mm 1 mps 753 mmHg 82%
22:00 +15°C° 0 mm 1 mps 753 mmHg 85%
23:00 +14°C° 0 mm 1 mps 753 mmHg 86%

Tomorrow, 14 July, Tuesday

Time Temperature Precipitation Wind Pressure Humidity
00:00 +13°C° 0 mm 0 mps 753 mmHg 87%
01:00 +12°C° 0 mm 0 mps 753 mmHg 88%
02:00 +12°C° 0 mm 0 mps 752 mmHg 88%
03:00 +12°C° 0 mm 0 mps 752 mmHg 88%
04:00 +12°C° 0 mm 0 mps 752 mmHg 88%
05:00 +14°C° 0 mm 1 mps 752 mmHg 83%
06:00 +16°C° 0 mm 1 mps 752 mmHg 79%
07:00 +19°C° 0 mm 1 mps 752 mmHg 74%
08:00 +20°C° 0.1 mm 1 mps 752 mmHg 68%
09:00 +20°C° 0.1 mm 2 mps 752 mmHg 62%
10:00 +21°C° 0.1 mm 2 mps 751 mmHg 57%
11:00 +23°C° 0.1 mm 1 mps 751 mmHg 55%
12:00 +23°C° 0.1 mm 1 mps 751 mmHg 53%
13:00 +24°C° 0.1 mm 1 mps 750 mmHg 51%
14:00 +24°C° 0 mm 1 mps 750 mmHg 51%
15:00 +24°C° 0 mm 1 mps 750 mmHg 51%
16:00 +24°C° 0 mm 1 mps 749 mmHg 52%
17:00 +23°C° 0 mm 1 mps 749 mmHg 56%
18:00 +22°C° 0 mm 1 mps 749 mmHg 60%
19:00 +19°C° 0 mm 0 mps 749 mmHg 64%
20:00 +20°C° 0 mm 1 mps 749 mmHg 66%
21:00 +19°C° 0 mm 1 mps 749 mmHg 68%
22:00 +17°C° 0 mm 2 mps 749 mmHg 70%
23:00 +16°C° 0 mm 2 mps 749 mmHg 74%

Day after tomorrow, 15 July, Wednesday

Time Temperature Precipitation Wind Pressure Humidity
00:00 +16°C° 0 mm 2 mps 749 mmHg 78%
01:00 +15°C° 0 mm 2 mps 749 mmHg 82%
02:00 +15°C° 0 mm 2 mps 749 mmHg 83%
03:00 +15°C° 0 mm 2 mps 748 mmHg 85%
04:00 +15°C° 0 mm 2 mps 748 mmHg 86%
05:00 +16°C° 0 mm 3 mps 748 mmHg 82%
06:00 +18°C° 0 mm 3 mps 748 mmHg 78%
07:00 +19°C° 0 mm 3 mps 748 mmHg 74%
08:00 +21°C° 0.2 mm 3 mps 748 mmHg 67%
09:00 +22°C° 0.2 mm 4 mps 748 mmHg 59%
10:00 +25°C° 0.2 mm 4 mps 747 mmHg 52%
11:00 +26°C° 0.1 mm 4 mps 747 mmHg 50%
12:00 +26°C° 0.1 mm 4 mps 747 mmHg 48%
13:00 +27°C° 0.1 mm 4 mps 747 mmHg 46%
14:00 +26°C° 0 mm 4 mps 746 mmHg 48%
15:00 +26°C° 0 mm 4 mps 746 mmHg 50%
16:00 +26°C° 0 mm 4 mps 746 mmHg 51%
17:00 +25°C° 0.2 mm 3 mps 746 mmHg 58%
18:00 +22°C° 0.2 mm 3 mps 746 mmHg 65%
19:00 +21°C° 0.2 mm 3 mps 746 mmHg 72%
20:00 +20°C° 0.1 mm 3 mps 746 mmHg 76%
21:00 +19°C° 0.1 mm 2 mps 746 mmHg 80%
22:00 +18°C° 0.1 mm 2 mps 747 mmHg 85%
23:00 +17°C° 0 mm 2 mps 747 mmHg 87%

16 July, Thursday

Time Temperature Precipitation Wind Pressure Humidity
00:00 +17°C° 0 mm 3 mps 747 mmHg 89%
01:00 +16°C° 0 mm 3 mps 747 mmHg 91%
02:00 +16°C° 0.5 mm 3 mps 747 mmHg 93%
03:00 +16°C° 0.5 mm 3 mps 747 mmHg 94%
04:00 +16°C° 0.5 mm 2 mps 747 mmHg 96%
05:00 +16°C° 0.8 mm 2 mps 747 mmHg 95%
06:00 +16°C° 0.8 mm 2 mps 747 mmHg 95%
07:00 +16°C° 0.8 mm 2 mps 747 mmHg 95%
08:00 +16°C° 0.8 mm 2 mps 748 mmHg 92%
09:00 +17°C° 0.8 mm 2 mps 748 mmHg 88%
10:00 +17°C° 0.8 mm 2 mps 748 mmHg 85%
11:00 +18°C° 0 mm 2 mps 748 mmHg 78%
12:00 +19°C° 0 mm 2 mps 748 mmHg 71%
13:00 +21°C° 0 mm 2 mps 748 mmHg 64%
14:00 +21°C° 0.3 mm 2 mps 748 mmHg 65%
15:00 +21°C° 0.3 mm 2 mps 748 mmHg 66%
16:00 +21°C° 0.3 mm 2 mps 748 mmHg 66%
17:00 +20°C° 0.3 mm 2 mps 748 mmHg 71%
18:00 +20°C° 0.3 mm 1 mps 748 mmHg 75%
19:00 +20°C° 0.3 mm 1 mps 748 mmHg 80%
20:00 +19°C° 0.4 mm 1 mps 749 mmHg 83%
21:00 +18°C° 0.4 mm 1 mps 749 mmHg 86%
22:00 +16°C° 0.4 mm 1 mps 749 mmHg 89%
23:00 +16°C° 0.3 mm 1 mps 749 mmHg 90%

17 July, Friday

Time Temperature Precipitation Wind Pressure Humidity
00:00 +16°C° 0.3 mm 1 mps 749 mmHg 91%
01:00 +16°C° 0.3 mm 1 mps 749 mmHg 91%
02:00 +16°C° 0.2 mm 2 mps 749 mmHg 92%
03:00 +16°C° 0.2 mm 2 mps 749 mmHg 92%
04:00 +15°C° 0.2 mm 2 mps 749 mmHg 92%
05:00 +16°C° 0 mm 2 mps 749 mmHg 91%
06:00 +16°C° 0 mm 2 mps 749 mmHg 90%
07:00 +16°C° 0 mm 2 mps 749 mmHg 88%
08:00 +17°C° 0.2 mm 2 mps 749 mmHg 87%
09:00 +17°C° 0.2 mm 2 mps 750 mmHg 85%
10:00 +18°C° 0.2 mm 2 mps 750 mmHg 84%
11:00 +18°C° 0.4 mm 2 mps 750 mmHg 84%
12:00 +18°C° 0.4 mm 2 mps 749 mmHg 85%
13:00 +18°C° 0.4 mm 3 mps 749 mmHg 86%
14:00 +18°C° 0.2 mm 3 mps 749 mmHg 85%
15:00 +18°C° 0.2 mm 3 mps 749 mmHg 84%
16:00 +19°C° 0.2 mm 3 mps 749 mmHg 83%
17:00 +18°C° 0 mm 3 mps 749 mmHg 84%
18:00 +18°C° 0 mm 2 mps 749 mmHg 85%
19:00 +18°C° 0 mm 2 mps 749 mmHg 86%
20:00 +18°C° 0.3 mm 2 mps 749 mmHg 88%
21:00 +18°C° 0.3 mm 1 mps 750 mmHg 90%
22:00 +18°C° 0.3 mm 1 mps 750 mmHg 92%
23:00 +18°C° 0.3 mm 1 mps 750 mmHg 93%

18 July, Saturday

Time Temperature Precipitation Wind Pressure Humidity
00:00 +18°C° 0.3 mm 1 mps 750 mmHg 94%
01:00 +18°C° 0.3 mm 1 mps 750 mmHg 95%
02:00 +17°C° 0.1 mm 2 mps 750 mmHg 95%
03:00 +16°C° 0.1 mm 2 mps 750 mmHg 95%
04:00 +16°C° 0.1 mm 2 mps 750 mmHg 96%
05:00 +17°C° 0.1 mm 3 mps 750 mmHg 93%
06:00 +18°C° 0.1 mm 3 mps 750 mmHg 91%
07:00 +19°C° 0.1 mm 3 mps 751 mmHg 88%
08:00 +20°C° 0.5 mm 3 mps 751 mmHg 82%
09:00 +21°C° 0.5 mm 4 mps 751 mmHg 76%
10:00 +23°C° 0.5 mm 4 mps 751 mmHg 70%
11:00 +23°C° 0.6 mm 4 mps 751 mmHg 68%
12:00 +25°C° 0.6 mm 4 mps 750 mmHg 65%
13:00 +25°C° 0.6 mm 5 mps 750 mmHg 63%
14:00 +25°C° 0.2 mm 4 mps 750 mmHg 62%
15:00 +25°C° 0.2 mm 4 mps 750 mmHg 61%
16:00 +25°C° 0.2 mm 4 mps 750 mmHg 60%
17:00 +23°C° 0 mm 4 mps 750 mmHg 65%
18:00 +22°C° 0 mm 3 mps 750 mmHg 70%
19:00 +21°C° 0 mm 3 mps 750 mmHg 75%
20:00 +20°C° 0 mm 3 mps 750 mmHg 78%
21:00 +19°C° 0 mm 3 mps 751 mmHg 80%
22:00 +18°C° 0 mm 3 mps 751 mmHg 83%
23:00 +17°C° 0 mm 3 mps 751 mmHg 86%
Show more